Regional Weather Roundup
Issued by NWS Northern Indiana

Home | Current Version | Previous Version | Graphics & Text | Print | Product List | Glossary On
Versions: 1 2 3 4 5 6 7 8 9 10 11 12 13 14 15 16 17 18 19 20 21 22 23 24 25 26 27 28 29 30 31 32 33 34 35 36 37 38 39 40 41 42 43 44 45 46 47 48 49 50
000
ASUS43 KIWX 261410
RWRIWX

KIWX WEATHER ROUNDUP
NATIONAL WEATHER SERVICE NORTHERN INDIANA
900 AM EST WED NOV 26 2014

NOTE: "FAIR" INDICATES FEW OR NO CLOUDS BELOW 12,000 FEET WITH NO
SIGNIFICANT WEATHER AND/OR OBSTRUCTIONS TO VISIBILITY.

* THESE STATIONS ARE NOT UNDER NWS QUALITY CONTROL. THEY ALSO MAY NOT
  REPORT WEATHER SUCH AS PRECIPITATION OR FOG.

INZ001>027-261500-
NORTHERN INDIANA

CITY           SKY/WX    TMP DP  RH WIND       PRES   REMARKS
GARY*          CLOUDY    27  19  74 SE7       30.17S WCI  19
VALPARAISO     CLOUDY    23  18  81 SE9       30.16F WCI  13
MICHIGAN CITY* CLOUDY    27  19  74 SE7       30.17S WCI  19
LAPORTE*       CLOUDY    26  22  83 E7        30.17R WCI  19
KNOX*          CLOUDY    24  19  81 E7        30.16S WCI  16
SOUTH BEND     CLOUDY    26  19  74 E6        30.17S WCI  19
ELKHART*       CLOUDY    27  18  69 SE9       30.17S WCI  17
GOSHEN         CLOUDY    26  19  74 E7        30.16R WCI  18
MONTICELLO*    CLOUDY    25  20  83 E5        30.15S WCI  19
LOGANSPORT*    CLOUDY    27  21  80 E8        30.16S WCI  18
ROCHESTER*     CLOUDY    28  23  80 E6        30.17R WCI  22
WARSAW*        CLOUDY    27  21  80 SE3       30.16R
ANGOLA*        CLOUDY    25  19  80 E5        30.15S WCI  19
FORT WAYNE     FLURRIES  26  20  77 E6        30.16F WCI  19
HUNTINGTON*    CLOUDY    25  21  85 E6        30.16S WCI  18
PERU/GRISSOM   CLOUDY    25  24  95 E6        30.14F WCI  18
MARION*          N/A     26  21  82 E8        30.15S WCI  17

$$
INZ028>050-261500-
CENTRAL INDIANA

CITY           SKY/WX    TMP DP  RH WIND       PRES   REMARKS
LAFAYETTE      CLOUDY    24  19  81 E8        30.16S WCI  15
KOKOMO*        CLOUDY    25  19  80 SE7       30.15S WCI  17
MUNCIE*        CLOUDY    27  21  78 E5        30.14S WCI  22
INDIANAPOLIS   CLOUDY    27  20  75 E6        30.13S WCI  20

$$
MIZ043>046-050>051-056>058-064>065-071>073-077>080-261500-
SOUTHWEST LOWER MICHIGAN

CITY           SKY/WX    TMP DP  RH WIND       PRES   REMARKS
BATTLE CREEK   CLOUDY    29  19  66 E5        30.16R WCI  24
BENTON HARBOR  CLOUDY    25  19  78 SE7       30.17R WCI  17
COLDWATER*     CLOUDY    28  22  76 E3        30.16R
HILLSDALE*     CLOUDY    27  21  79 E5        30.14S WCI  22
HOLLAND        CLOUDY    29  21  72 SE5       30.17R WCI  24
GRAND RAPIDS   CLOUDY    28  22  78 SE3       30.16S
KALAMAZOO      CLOUDY    27  19  72 S3        30.16S
STURGIS*       CLOUDY    25  19  80 E6        30.16R WCI  18
THREE RIVERS*  CLOUDY    28  20  74 SE6       30.17R WCI  21

$$
OHZ001>008-015>018-024>025-261500-
NORTHWEST OHIO

CITY           SKY/WX    TMP DP  RH WIND       PRES   REMARKS
WAUSEON*       CLOUDY    28  21  74 E5        30.17R WCI  23
FINDLAY        CLOUDY    30  21  69 NE6       30.14S WCI  24
TOLEDO EXPRESS CLOUDY    28  21  75 CALM      30.17R
TOLEDO METCALF CLOUDY    30  22  72 CALM      30.18S
LIMA           CLOUDY    29  21  72 NE9       30.14R WCI  20

$$
AND FOR LAKE MICHIGAN COASTAL AND OPEN LAKE BUOY OBSERVATIONS

STATION/POSITION TEMP    WIND        PRES    VSBY  WAVE
                 AIR SEA DIR/SP/G                  HT/PER
                 (F)     (DEG/KT/KT) (MB)    (MI)  (FT/S)
CALUMET HARBOR    25     140/  7/ 11 1020.0R
MICHIGAN CITY     24      60/  6/  8   N/A
SAINT JOSEPH      26      CALM  /  5 1021.7F
SOUTH LAKE BUOY   31 42  180/  6/  8 1021.8F         1/ 3

$$
&&


USA.gov is the U.S. government's official web portal to all federal, state and local government web resources and services.